Helicity
119 133 127 127 155 124 107 121 144 163 153 136 96 90 69 69 57 57 48 48 69 65
126 128 140 139 125 114 125 143 144 148 148 144 132 125 111 85 72 85 68 60 66 79
169 183 201 213 154 131 136 124 127 138 145 136 146 147 157 120 100 106 88 85 86 91
194 216 247 244 211 146 138 127 114 125 131 145 165 182 182 163 150 140 115 124 118 108
127 137 175 226 235 230 191 183 163 145 140 148 175 198 207 201 196 183 169 151 173 133
110 131 136 142 153 183 174 166 161 168 166 167 179 210 211 222 235 234 212 217 222 188
205 129 108 117 124 153 160 143 159 197 196 194 210 222 225 236 242 245 241 242 241 231
250 231 212 152 111 130 148 158 160 160 143 145 203 246 242 264 266 257 248 268 282 284
256 260 244 239 246 203 128 154 163 169 167 182 208 185 205 245 270 269 276 299 316 313
252 249 247 234 219 225 236 256 157 147 166 172 184 175 200 231 258 279 293 297 307 340
223 213 211 210 206 206 173 186 213 230 235 163 166 149 168 207 247 257 260 287 293 328
217 209 196 198 208 190 171 175 171 188 187 186 210 208 163 201 219 247 239 286 289 301
127 129 145 140 151 138 129 110 107 105 115 122 136 154 168 134 160 194 246 319 286 212
77 69 58 71 78 80 87 79 65 52 47 56 66 68 102 131 154 188 224 252 231 287
Wind_Speed
24 36 44 42 36 32 27 17 13 13 11 13 8 4 4 2 7 7 8 10 8 7
26 25 36 45 42 43 37 32 24 20 16 15 13 10 9 9 8 7 7 9 8 9
38 32 33 37 35 37 38 34 32 27 24 22 20 19 16 16 15 14 14 13 13 14
54 48 47 45 44 41 39 33 29 29 28 27 28 27 25 24 23 22 21 21 20 20
58 59 57 52 47 43 39 40 39 38 35 33 33 35 33 32 31 29 29 29 28 27
62 58 56 56 55 52 49 47 45 45 46 45 43 41 40 39 39 38 37 37 36 34
60 63 64 64 62 59 56 56 54 51 52 53 51 48 47 47 47 47 46 44 43 41
61 63 65 69 68 67 65 64 62 63 63 62 58 55 53 52 54 56 56 54 52 49
63 63 64 67 69 72 71 69 68 67 67 67 64 61 57 57 61 62 62 62 60 57
66 68 69 71 71 72 73 73 75 73 71 72 69 65 63 62 66 69 69 68 67 64
69 72 74 74 75 76 74 74 75 75 77 77 76 71 71 70 70 74 74 71 69 68
70 73 74 76 79 81 83 84 85 82 84 87 85 82 80 75 76 78 79 74 71 68
69 71 74 75 77 76 78 80 81 85 85 88 92 89 88 83 79 80 75 72 72 68
69 72 72 74 74 76 78 79 80 81 79 80 80 82 83 83 81 80 77 76 74 70
Wind_Direction
239 265 269 271 274 278 278 264 241 219 216 202 207 230 215 209 192 197 206 211 227 255
243 242 266 272 273 275 279 280 276 269 246 236 236 254 253 249 244 267 265 249 264 274
262 258 264 272 274 268 274 276 278 270 265 262 256 265 267 268 279 278 284 289 288 293
266 267 270 273 277 274 272 269 265 267 266 263 264 268 268 271 275 275 283 293 289 290
269 271 271 272 274 275 271 273 271 274 273 270 269 271 267 269 276 274 279 284 291 288
270 271 272 273 276 277 277 277 275 275 275 276 277 274 271 271 274 276 278 283 285 287
277 275 275 275 276 277 277 278 278 276 276 277 277 276 276 275 277 278 280 281 282 285
284 283 282 279 277 277 277 277 278 279 280 280 278 277 276 277 277 279 280 281 281 281
285 285 285 285 284 282 279 279 279 279 280 280 279 279 276 277 280 280 280 281 281 280
287 286 286 286 287 285 284 285 280 280 280 280 282 281 279 277 280 282 281 281 282 283
290 289 288 287 286 287 287 287 285 286 286 284 283 283 283 281 281 282 283 282 281 281
293 292 292 290 288 288 287 286 285 286 284 287 287 290 287 285 284 284 283 283 283 282
295 294 293 293 292 292 291 290 290 288 287 287 286 287 287 289 287 285 286 285 285 283
296 296 296 295 295 294 293 292 292 292 292 293 293 292 290 288 286 285 285 284 285 287